[[{"header":{"parameterUnit":"m.s-1","parameterCategory":2,"la1":30.2992,"la2":30.254,"lo1":-89.0895,"lo2":-89.0443,"dy":0.0025,"dx":0.0025,"nx":19,"ny":19,"refTime":"2026-03-09T21:00:00:Z","depth":"0","parameterNumber":2,"parameterNumberName":"U-component_of_CURRENTS"},"data":[0,0,0,-0.2235,-0.2236,-0.2296,-0.2296,-0.2327,-0.2327,0,0,0,0,0,0,0,0,0,0,0,-0.2201,-0.2201,-0.2234,-0.2236,-0.2296,-0.2296,-0.2327,-0.2327,0,0,0,0,0,0,0,0,0,0,0,-0.22,-0.2201,-0.2201,-0.2237,-0.2296,-0.2296,-0.2327,-0.2291,0,0,0,0,0,0,0,0,0,0,-0.2238,-0.2207,-0.2201,-0.2201,-0.2237,-0.2296,-0.2296,-0.229,-0.2293,-0.229,0,-0.2298,0,-0.2323,-0.2329,-0.2329,0,0,0,-0.2227,-0.2204,-0.2233,-0.2201,-0.2238,-0.2296,-0.2266,-0.2292,-0.2296,-0.2294,-0.2299,-0.2301,-0.2323,-0.2329,-0.233,-0.239,-0.239,0,0,-0.2224,-0.2199,-0.2231,-0.2236,-0.2251,-0.2265,-0.2268,-0.2295,-0.2289,-0.2299,-0.2302,-0.2324,-0.233,-0.233,-0.239,-0.239,0,0,0,-0.222,-0.2196,-0.2225,-0.2234,-0.2254,-0.2267,-0.2271,-0.2287,-0.2301,-0.2303,-0.2324,-0.233,-0.233,-0.2389,-0.239,-0.2416,0,0,0,-0.2218,-0.2196,-0.2224,-0.2208,-0.2254,-0.2276,-0.2263,-0.2299,-0.2303,-0.2324,-0.233,-0.233,-0.2389,-0.2389,-0.2414,-0.2418,0,0,0,-0.2198,-0.2193,-0.2203,-0.2206,-0.224,-0.2277,-0.2291,-0.23,-0.2317,-0.2329,-0.2331,-0.2388,-0.2389,-0.2413,-0.2415,-0.2419,0,0,0,-0.2167,-0.2199,-0.2202,-0.2246,-0.224,-0.2313,-0.2291,-0.2331,-0.2345,-0.233,-0.2389,-0.239,-0.2412,-0.2414,-0.2418,-0.2259,-0.2252,0,0,-0.2199,-0.2202,-0.2233,-0.2239,-0.2311,-0.2304,-0.2368,-0.2368,-0.2359,-0.2374,-0.2376,-0.2415,-0.2415,-0.2419,-0.2322,-0.2312,0,0,0,-0.224,-0.2254,-0.228,-0.2317,-0.2365,-0.239,-0.2404,-0.2405,-0.2414,-0.2375,-0.243,-0.2429,-0.243,-0.2333,-0.2326,-0.2231,-0.2395,-0.2395,-0.2394,-0.2222,-0.2269,-0.2314,-0.2368,-0.241,-0.2451,-0.2467,-0.2467,-0.2458,-0.2465,-0.2462,-0.2497,-0.2395,-0.2388,-0.2293,-0.2479,-0.2479,-0.2479,-0.2479,-0.2247,-0.2261,-0.232,-0.2379,-0.2421,-0.2465,-0.2511,-0.2508,-0.2521,-0.2505,-0.2504,-0.2379,-0.2381,-0.2283,-0.2481,-0.2481,-0.248,-0.248,-0.248,-0.2207,-0.2217,-0.2266,-0.2332,-0.239,-0.2452,-0.2487,-0.2523,-0.2532,-0.2542,-0.2419,-0.2416,-0.2318,-0.2538,-0.2538,-0.2538,-0.2538,-0.2538,-0.2538,-0.2121,-0.2176,-0.2194,-0.2278,-0.2309,-0.2374,-0.2465,-0.2484,-0.2462,-0.243,-0.2428,-0.2308,-0.2514,-0.2498,-0.2539,-0.2539,-0.2539,-0.2539,-0.2539,-0.2037,-0.2066,-0.2088,-0.2118,-0.22,-0.2194,-0.2335,-0.2322,-0.2358,-0.2307,-0.2165,-0.2363,-0.2333,-0.2336,-0.2315,-0.2307,-0.2307,-0.2307,-0.2307,-0.1946,-0.1975,-0.1962,-0.1982,-0.2032,-0.2098,-0.2019,-0.2035,-0.2017,-0.1952,-0.2021,-0.196,-0.1973,-0.1922,-0.1934,-0.1905,-0.1793,-0.1792,-0.1792,-0.1857,-0.1881,-0.1822,-0.1873,-0.193,-0.1947,-0.1784,-0.1679,-0.1697,-0.177,-0.1926,-0.1948,-0.1862,-0.1891,-0.1813,-0.1838,-0.1793,0,0]},{"header":{"parameterUnit":"m.s-1","parameterCategory":2,"la1":30.2992,"la2":30.254,"lo1":-89.0895,"lo2":-89.0443,"dy":0.0025,"dx":0.0025,"nx":19,"ny":19,"refTime":"2026-03-09T21:00:00:Z","depth":"0","parameterNumber":3,"parameterNumberName":"V-component_of_CURRENTS"},"data":[0,0,0,-0.0159,-0.0158,-0.0088,-0.0087,0.0052,0.0053,0,0,0,0,0,0,0,0,0,0,0,-0.0183,-0.0183,-0.0159,-0.0158,-0.0088,-0.0087,0.0051,0.0053,0,0,0,0,0,0,0,0,0,0,0,-0.0183,-0.0183,-0.0183,-0.0158,-0.0088,-0.0087,0.0051,-0.001,0,0,0,0,0,0,0,0,0,0,-0.0084,-0.0124,-0.0183,-0.0183,-0.0158,-0.0088,-0.0087,-0.0014,-0.0007,0.0028,0,0.0029,0,0.0038,0.0062,0.0062,0,0,0,-0.0143,-0.013,-0.0108,-0.0183,-0.0157,-0.0088,-0.0115,-0.001,-0.0002,0.0038,0.0031,0.0036,0.0041,0.0063,0.0063,0.0141,0.0141,0,0,-0.0147,-0.0167,-0.0114,-0.0104,-0.0151,-0.0117,-0.0113,-0.0005,-0.0003,0.0031,0.0039,0.0043,0.0064,0.0065,0.0141,0.0141,0,0,0,-0.0168,-0.017,-0.0152,-0.0109,-0.0103,-0.0116,-0.0111,-0.0007,-0.0001,0.004,0.0045,0.0064,0.0066,0.0141,0.0141,0.0047,0,0,0,-0.017,-0.0184,-0.0154,-0.0165,-0.0106,-0.0063,-0.0115,-0.0008,0.0004,0.0044,0.0064,0.0067,0.0142,0.0141,0.005,0.0005,0,0,0,-0.0184,-0.0185,-0.0181,-0.0166,-0.0143,-0.0065,-0.0051,-0.0005,0.0007,0.0062,0.0068,0.0142,0.0141,0.0052,0.001,0.0053,0,0,0,-0.0202,-0.0229,-0.0182,-0.021,-0.0144,-0.0127,-0.0052,-0.0025,0.0013,0.0065,0.0142,0.0141,0.0053,0.0013,0.0055,0.0143,0.0142,0,0,-0.0252,-0.0235,-0.0254,-0.0211,-0.0228,-0.0135,-0.0131,-0.0046,0.0025,0.0113,0.0115,0.0049,0.0011,0.0054,0.0123,0.0122,0,0,0,-0.0281,-0.0296,-0.0292,-0.0289,-0.025,-0.0205,-0.0119,-0.0067,0.0009,0.0045,0.0068,0.0048,0.0078,0.0135,0.0135,0.0313,0.014,0.014,0.014,-0.0369,-0.0354,-0.0388,-0.0361,-0.0338,-0.0248,-0.02,-0.0107,-0.0039,-0.0018,-0.0015,-0.0031,0.0027,0.0029,0.021,0.0004,0.0004,0.0003,0.0003,-0.0464,-0.0491,-0.0459,-0.0486,-0.0421,-0.0395,-0.0269,-0.0206,-0.0109,-0.0072,-0.0037,0.0049,0.0023,0.0217,-0.0003,-0.0002,-0.0001,-0.0,-0.0,-0.0531,-0.0543,-0.055,-0.0577,-0.056,-0.048,-0.0429,-0.0327,-0.0194,-0.0173,-0.0029,-0.0026,0.0139,-0.0133,-0.0133,-0.0133,-0.0133,-0.0133,-0.0133,-0.0596,-0.0605,-0.0657,-0.0669,-0.0681,-0.065,-0.0518,-0.0423,-0.023,-0.0114,-0.0111,0.0164,-0.007,-0.0072,-0.0134,-0.0134,-0.0134,-0.0134,-0.0134,-0.0685,-0.068,-0.0767,-0.0797,-0.0818,-0.0782,-0.0653,-0.0385,-0.0251,-0.012,0.0215,-0.0043,0.0014,0.0016,0.0019,-0.0015,-0.0015,-0.0015,-0.0015,-0.0737,-0.0745,-0.0853,-0.0914,-0.0941,-0.0845,-0.0655,-0.0354,0.0084,0.0313,0.0362,0.0418,0.0405,0.0489,0.0481,0.0495,0.0582,0.0583,0.0584,-0.0792,-0.0822,-0.0901,-0.0957,-0.0994,-0.0884,-0.066,-0.0267,0.0356,0.0623,0.0591,0.0566,0.066,0.0626,0.0766,0.074,0.0767,0,0]}],[{"header":{"parameterUnit":"m.s-1","parameterCategory":2,"la1":30.2992,"la2":30.254,"lo1":-89.0895,"lo2":-89.0443,"dy":0.0025,"dx":0.0025,"nx":19,"ny":19,"refTime":"2026-03-09T21:00:00:Z","depth":"2","parameterNumber":2,"parameterNumberName":"U-component_of_CURRENTS"},"data":[0,0,0,-0.1988,-0.199,-0.2056,-0.2056,-0.2103,-0.2103,0,0,0,0,0,0,0,0,0,0,0,-0.1955,-0.1955,-0.1988,-0.199,-0.2056,-0.2056,-0.2103,-0.2103,0,0,0,0,0,0,0,0,0,0,0,-0.1954,-0.1955,-0.1955,-0.199,-0.2056,-0.2056,-0.2103,-0.2061,0,0,0,0,0,0,0,0,0,0,-0.2001,-0.1972,-0.1955,-0.1955,-0.1991,-0.2056,-0.2056,-0.2059,-0.2064,-0.2063,0,-0.2072,0,-0.2095,-0.2106,-0.2106,0,0,0,-0.1985,-0.1968,-0.1994,-0.1955,-0.1991,-0.2056,-0.2025,-0.2062,-0.2067,-0.2069,-0.2072,-0.2075,-0.2096,-0.2106,-0.2106,-0.2177,-0.2177,0,0,-0.1981,-0.1959,-0.1991,-0.1997,-0.2005,-0.2023,-0.2027,-0.2065,-0.2063,-0.2073,-0.2076,-0.2096,-0.2106,-0.2107,-0.2176,-0.2177,0,0,0,-0.1974,-0.1956,-0.1982,-0.1995,-0.2014,-0.2025,-0.203,-0.2061,-0.2072,-0.2077,-0.2097,-0.2107,-0.2107,-0.2176,-0.2176,-0.2204,0,0,0,-0.1972,-0.1953,-0.1981,-0.1967,-0.2013,-0.2043,-0.2024,-0.2069,-0.2075,-0.2097,-0.2107,-0.2108,-0.2175,-0.2176,-0.2202,-0.2203,0,0,0,-0.1952,-0.1951,-0.196,-0.1966,-0.1999,-0.2043,-0.2056,-0.2071,-0.2087,-0.2106,-0.2108,-0.2175,-0.2176,-0.22,-0.2201,-0.2201,0,0,0,-0.1926,-0.1953,-0.1959,-0.1999,-0.1999,-0.2071,-0.2056,-0.2101,-0.2121,-0.2107,-0.2175,-0.2176,-0.2199,-0.22,-0.2199,-0.2043,-0.2036,0,0,-0.1953,-0.1955,-0.1984,-0.1992,-0.206,-0.2061,-0.2127,-0.214,-0.2136,-0.2158,-0.216,-0.2202,-0.2201,-0.22,-0.2108,-0.2098,0,0,0,-0.1989,-0.2001,-0.2025,-0.2062,-0.2111,-0.2144,-0.2168,-0.2175,-0.2196,-0.2155,-0.2218,-0.2216,-0.2214,-0.2119,-0.2112,-0.2182,-0.2182,-0.2181,-0.2181,-0.1973,-0.2016,-0.2058,-0.211,-0.2154,-0.2205,-0.2229,-0.2241,-0.2237,-0.2251,-0.225,-0.2283,-0.2183,-0.2176,-0.2269,-0.2269,-0.2269,-0.2269,-0.2269,-0.1993,-0.2006,-0.2065,-0.212,-0.217,-0.222,-0.2277,-0.2282,-0.2305,-0.2294,-0.2291,-0.2167,-0.2169,-0.2271,-0.2271,-0.2271,-0.227,-0.227,-0.227,-0.1956,-0.1966,-0.2012,-0.2078,-0.2142,-0.2212,-0.2252,-0.2299,-0.2316,-0.2327,-0.2203,-0.22,-0.2278,-0.2321,-0.2321,-0.2321,-0.2321,-0.2321,-0.2321,-0.1879,-0.193,-0.1948,-0.2031,-0.2065,-0.2133,-0.2232,-0.2252,-0.2236,-0.2213,-0.2212,-0.23,-0.2299,-0.2281,-0.2322,-0.2322,-0.2322,-0.2322,-0.2322,-0.1801,-0.1829,-0.1848,-0.1879,-0.196,-0.1944,-0.2089,-0.2078,-0.2121,-0.2071,-0.214,-0.2145,-0.2114,-0.2117,-0.2095,-0.2085,-0.2085,-0.2085,-0.2085,-0.1721,-0.1747,-0.1733,-0.1751,-0.1791,-0.1846,-0.1751,-0.1751,-0.183,-0.1826,-0.1838,-0.1787,-0.1802,-0.1752,-0.1764,-0.1734,-0.163,-0.163,-0.1629,-0.1643,-0.1662,-0.1606,-0.1648,-0.169,-0.1685,-0.1499,-0.1352,-0.1417,-0.1614,-0.1789,-0.2049,-0.2004,-0.2015,-0.1962,-0.1972,-0.1934,0,0]},{"header":{"parameterUnit":"m.s-1","parameterCategory":2,"la1":30.2992,"la2":30.254,"lo1":-89.0895,"lo2":-89.0443,"dy":0.0025,"dx":0.0025,"nx":19,"ny":19,"refTime":"2026-03-09T21:00:00:Z","depth":"2","parameterNumber":3,"parameterNumberName":"V-component_of_CURRENTS"},"data":[0,0,0,-0.031,-0.0309,-0.0248,-0.0247,-0.0123,-0.0122,0,0,0,0,0,0,0,0,0,0,0,-0.033,-0.0329,-0.031,-0.0309,-0.0248,-0.0247,-0.0123,-0.0122,0,0,0,0,0,0,0,0,0,0,0,-0.033,-0.0329,-0.0329,-0.0309,-0.0248,-0.0247,-0.0123,-0.0177,0,0,0,0,0,0,0,0,0,0,-0.0241,-0.0275,-0.0329,-0.0329,-0.0309,-0.0248,-0.0247,-0.018,-0.0174,-0.0142,0,-0.0141,0,-0.0134,-0.0113,-0.0113,0,0,0,-0.0295,-0.0281,-0.0263,-0.0329,-0.0308,-0.0248,-0.0271,-0.0177,-0.017,-0.0133,-0.0139,-0.0135,-0.0132,-0.0113,-0.0112,-0.0038,-0.0038,0,0,-0.0298,-0.0315,-0.0268,-0.0259,-0.0302,-0.0273,-0.027,-0.0173,-0.017,-0.0139,-0.0132,-0.013,-0.0112,-0.0111,-0.0038,-0.0038,0,0,0,-0.0317,-0.0317,-0.0302,-0.0264,-0.0259,-0.0272,-0.0268,-0.0174,-0.0169,-0.0131,-0.0128,-0.0111,-0.011,-0.0038,-0.0038,-0.012,0,0,0,-0.0319,-0.0329,-0.0304,-0.0313,-0.0262,-0.0223,-0.0271,-0.0175,-0.0164,-0.0129,-0.0111,-0.0109,-0.0038,-0.0038,-0.0118,-0.016,0,0,0,-0.0331,-0.0331,-0.0327,-0.0314,-0.0294,-0.0225,-0.0214,-0.0173,-0.0163,-0.0113,-0.0108,-0.0038,-0.0038,-0.0116,-0.0156,-0.0137,0,0,0,-0.0344,-0.0367,-0.0327,-0.0352,-0.0295,-0.0281,-0.0215,-0.019,-0.0156,-0.0111,-0.0038,-0.0038,-0.0115,-0.0153,-0.0136,-0.009,-0.0095,0,0,-0.0387,-0.0373,-0.0389,-0.0352,-0.0369,-0.0288,-0.0284,-0.0208,-0.0144,-0.0063,-0.0061,-0.0118,-0.0155,-0.0137,-0.0104,-0.0108,0,0,0,-0.0412,-0.0426,-0.0423,-0.0421,-0.0387,-0.035,-0.0273,-0.0226,-0.0154,-0.0125,-0.01,-0.012,-0.0106,-0.0074,-0.0078,-0.0039,-0.0039,-0.0039,-0.0039,-0.0486,-0.0475,-0.0505,-0.0484,-0.0464,-0.0387,-0.0345,-0.026,-0.0197,-0.0175,-0.0173,-0.0199,-0.0167,-0.0169,-0.0153,-0.0153,-0.0153,-0.0154,-0.0154,-0.0569,-0.0594,-0.0569,-0.0595,-0.054,-0.0517,-0.0406,-0.0348,-0.0264,-0.0222,-0.0203,-0.0146,-0.0178,-0.016,-0.0159,-0.0158,-0.0157,-0.0157,-0.0156,-0.0627,-0.064,-0.0648,-0.0676,-0.0664,-0.0595,-0.0559,-0.046,-0.0343,-0.0329,-0.0236,-0.0234,-0.0241,-0.0304,-0.0304,-0.0304,-0.0304,-0.0304,-0.0304,-0.0685,-0.0694,-0.0744,-0.0758,-0.0774,-0.0753,-0.0643,-0.0568,-0.0415,-0.0318,-0.0316,-0.0249,-0.0244,-0.0247,-0.0306,-0.0306,-0.0306,-0.0306,-0.0306,-0.0766,-0.0761,-0.0843,-0.0875,-0.0906,-0.0893,-0.0786,-0.0589,-0.0482,-0.0388,-0.0282,-0.0282,-0.024,-0.0236,-0.0237,-0.029,-0.029,-0.029,-0.029,-0.0813,-0.082,-0.0924,-0.0988,-0.1025,-0.0959,-0.0839,-0.0607,-0.0382,-0.0269,-0.027,-0.0242,-0.0243,-0.0199,-0.0195,-0.0194,-0.0237,-0.0237,-0.0237,-0.0864,-0.0892,-0.097,-0.1028,-0.1078,-0.1012,-0.0863,-0.0541,-0.0239,-0.0237,-0.0287,-0.0282,-0.0242,-0.0243,-0.0172,-0.0167,-0.0165,0,0]}],[{"header":{"parameterUnit":"m.s-1","parameterCategory":2,"la1":30.2992,"la2":30.254,"lo1":-89.0895,"lo2":-89.0443,"dy":0.0025,"dx":0.0025,"nx":19,"ny":19,"refTime":"2026-03-09T21:00:00:Z","depth":"4","parameterNumber":2,"parameterNumberName":"U-component_of_CURRENTS"},"data":[0,0,0,-0.1461,-0.1464,-0.16,-0.1601,-0.1706,-0.1707,0,0,0,0,0,0,0,0,0,0,0,-0.1414,-0.1415,-0.1461,-0.1464,-0.16,-0.1601,-0.1706,-0.1707,0,0,0,0,0,0,0,0,0,0,0,-0.1414,-0.1415,-0.1416,-0.1464,-0.16,-0.1601,-0.1706,-0.1621,0,0,0,0,0,0,0,0,0,0,-0.1497,-0.1467,-0.1415,-0.1416,-0.1465,-0.16,-0.1601,-0.1617,-0.1626,-0.1623,0,-0.1649,0,-0.1677,-0.1712,-0.1712,0,0,0,-0.1467,-0.146,-0.1492,-0.1417,-0.1466,-0.16,-0.154,-0.1623,-0.1632,-0.1634,-0.165,-0.1655,-0.1679,-0.1712,-0.1713,-0.1815,-0.1815,0,0,-0.146,-0.1443,-0.1486,-0.1499,-0.1507,-0.1535,-0.1544,-0.1629,-0.1642,-0.1651,-0.1658,-0.1681,-0.1713,-0.1713,-0.1814,-0.1815,0,0,0,-0.1436,-0.1437,-0.1469,-0.1494,-0.1523,-0.1539,-0.1549,-0.1638,-0.1648,-0.1659,-0.1682,-0.1713,-0.1714,-0.1814,-0.1814,-0.1845,0,0,0,-0.1431,-0.1423,-0.1466,-0.1458,-0.1522,-0.1593,-0.1556,-0.1643,-0.1653,-0.1682,-0.1713,-0.1715,-0.1813,-0.1814,-0.1843,-0.1842,0,0,0,-0.1407,-0.1421,-0.1437,-0.1456,-0.1514,-0.1593,-0.1608,-0.1646,-0.1666,-0.1712,-0.1715,-0.1813,-0.1814,-0.1841,-0.1839,-0.1836,0,0,0,-0.1384,-0.1415,-0.1437,-0.1486,-0.1512,-0.1603,-0.1608,-0.1684,-0.1727,-0.1714,-0.1813,-0.1814,-0.184,-0.1838,-0.1835,-0.159,0,0,0,-0.1407,-0.1418,-0.1447,-0.147,-0.1548,-0.1584,-0.1672,-0.173,-0.1742,-0.1779,-0.1782,-0.1843,-0.1839,-0.1836,-0.1669,0,0,0,0,-0.1444,-0.1463,-0.1492,-0.1546,-0.1609,-0.1675,-0.1738,-0.1764,-0.1823,-0.1774,-0.1861,-0.1858,-0.1854,-0.1709,-0.1821,-0.1821,-0.182,-0.182,-0.182,-0.1436,-0.1479,-0.1531,-0.1594,-0.1655,-0.1748,-0.1798,-0.1844,-0.1858,-0.1891,-0.1896,-0.1933,-0.1784,-0.1919,-0.192,-0.192,-0.192,-0.192,-0.192,-0.1449,-0.1467,-0.1546,-0.1613,-0.1692,-0.1772,-0.1861,-0.1889,-0.194,-0.1944,-0.1939,-0.177,-0.1924,-0.1923,-0.1922,-0.1922,-0.1922,-0.1922,-0.1921,-0.1412,-0.1424,-0.1491,-0.1584,-0.1684,-0.1785,-0.1837,-0.1916,-0.1955,-0.1972,-0.1802,-0.1945,-0.1925,-0.1972,-0.1972,-0.1972,-0.1972,-0.1972,-0.1972,-0.1329,-0.1395,-0.1439,-0.1552,-0.1611,-0.1702,-0.1828,-0.1844,-0.191,-0.1801,-0.1977,-0.1949,-0.1948,-0.1928,-0.1972,-0.1972,-0.1972,-0.1972,-0.1972,-0.1249,-0.1296,-0.1339,-0.1397,-0.1511,-0.1554,-0.1712,-0.1689,-0.1685,-0.1623,-0.17,-0.1713,-0.1671,-0.1676,-0.1644,-0.1606,-0.1603,-0.16,0,-0.1177,-0.1208,-0.124,-0.128,-0.1315,-0.1447,-0.1387,-0.1439,-0.1485,-0.1433,-0.1683,-0.177,-0.1778,-0.1733,-0.1732,-0.1695,0,0,0,-0.1114,-0.1137,-0.1118,-0.1179,-0.1206,-0.1239,-0.1357,-0.1303,-0.1497,-0.1409,-0.1524,-0.1544,-0.1811,-0.1973,-0.1939,-0.1937,-0.1902,0,0]},{"header":{"parameterUnit":"m.s-1","parameterCategory":2,"la1":30.2992,"la2":30.254,"lo1":-89.0895,"lo2":-89.0443,"dy":0.0025,"dx":0.0025,"nx":19,"ny":19,"refTime":"2026-03-09T21:00:00:Z","depth":"4","parameterNumber":3,"parameterNumberName":"V-component_of_CURRENTS"},"data":[0,0,0,-0.0277,-0.0277,-0.0247,-0.0247,-0.0154,-0.0153,0,0,0,0,0,0,0,0,0,0,0,-0.0286,-0.0286,-0.0277,-0.0277,-0.0247,-0.0247,-0.0154,-0.0153,0,0,0,0,0,0,0,0,0,0,0,-0.0286,-0.0286,-0.0287,-0.0276,-0.0247,-0.0247,-0.0155,-0.0188,0,0,0,0,0,0,0,0,0,0,-0.0222,-0.0247,-0.0286,-0.0287,-0.0276,-0.0247,-0.0247,-0.019,-0.0186,-0.0156,0,-0.016,0,-0.0158,-0.0147,-0.0147,0,0,0,-0.0265,-0.0251,-0.0241,-0.0287,-0.0276,-0.0247,-0.0257,-0.0188,-0.0183,-0.015,-0.0158,-0.0155,-0.0157,-0.0146,-0.0146,-0.0086,-0.0086,0,0,-0.0267,-0.0278,-0.0244,-0.0238,-0.0278,-0.0258,-0.0256,-0.0186,-0.0184,-0.0158,-0.0153,-0.0155,-0.0146,-0.0145,-0.0086,-0.0086,0,0,0,-0.0279,-0.028,-0.0272,-0.0242,-0.0243,-0.0258,-0.0255,-0.0187,-0.0185,-0.0153,-0.0154,-0.0145,-0.0144,-0.0086,-0.0086,-0.0155,0,0,0,-0.028,-0.0287,-0.0273,-0.0279,-0.0245,-0.0223,-0.0259,-0.019,-0.0182,-0.0154,-0.0145,-0.0143,-0.0086,-0.0086,-0.0153,-0.0191,0,0,0,-0.0286,-0.0288,-0.0287,-0.028,-0.0272,-0.0225,-0.0218,-0.0188,-0.0183,-0.0147,-0.0143,-0.0085,-0.0086,-0.0151,-0.0187,-0.0182,0,0,0,-0.0294,-0.0312,-0.0288,-0.031,-0.0273,-0.0269,-0.0219,-0.0206,-0.0181,-0.0145,-0.0086,-0.0086,-0.0151,-0.0185,-0.018,-0.0183,0,0,0,-0.0324,-0.0316,-0.033,-0.0308,-0.0327,-0.0272,-0.0276,-0.022,-0.0168,-0.0103,-0.0101,-0.0154,-0.0187,-0.0182,-0.019,0,0,0,0,-0.0344,-0.0356,-0.0357,-0.0363,-0.0344,-0.0326,-0.0271,-0.0235,-0.018,-0.0156,-0.0137,-0.0155,-0.015,-0.0145,-0.0086,-0.0086,-0.0086,-0.0086,-0.0086,-0.0395,-0.0392,-0.042,-0.0413,-0.0405,-0.0357,-0.033,-0.0266,-0.0214,-0.0197,-0.0199,-0.0227,-0.0225,-0.0179,-0.0179,-0.0179,-0.018,-0.018,-0.018,-0.0454,-0.0475,-0.047,-0.0499,-0.047,-0.0462,-0.0382,-0.0339,-0.0278,-0.0238,-0.0229,-0.0204,-0.0186,-0.0185,-0.0184,-0.0184,-0.0183,-0.0183,-0.0182,-0.0491,-0.0503,-0.0523,-0.0561,-0.0571,-0.053,-0.0513,-0.0438,-0.0347,-0.0339,-0.0296,-0.0261,-0.0268,-0.0324,-0.0324,-0.0324,-0.0324,-0.0324,-0.0324,-0.0521,-0.0541,-0.0593,-0.0625,-0.0653,-0.0654,-0.0586,-0.0536,-0.0441,-0.0374,-0.0353,-0.0275,-0.027,-0.0274,-0.0327,-0.0326,-0.0326,-0.0326,-0.0326,-0.0567,-0.0577,-0.0655,-0.0697,-0.0753,-0.0745,-0.0694,-0.057,-0.0514,-0.0442,-0.0372,-0.0369,-0.0337,-0.0331,-0.0336,-0.0409,-0.0409,-0.0409,0,-0.0592,-0.0605,-0.0707,-0.0777,-0.0818,-0.0793,-0.072,-0.0643,-0.0515,-0.0506,-0.0519,-0.0446,-0.0441,-0.0412,-0.0406,-0.0416,0,0,0,-0.0623,-0.0651,-0.0723,-0.0793,-0.0843,-0.0749,-0.0695,-0.0645,-0.0533,-0.0472,-0.0415,-0.0414,-0.0408,-0.0334,-0.0278,-0.0272,-0.0276,0,0]}]]